Location: Evergreen Manor
(41.4083°N, 81.4939°W)
Time: 16:38:33
(UTC+00:00)

Cosmos 44 - Pass Details

Date: 11 December 2019
Orbit: 595 x 767 km, 65.1° (Epoch: 24 January)

Event Time Altitude Azimuth Distance (km) Brightness Sun altitude
Rises 11:43:47 0° 230° (SW) 3,030 6.3 -10.6°
Reaches altitude 10° 11:46:16 10° 237° (WSW) 2,089 5.4 -10.2°
Maximum altitude 11:50:44 41° 308° (NW) 936 3.5 -9.4°
Drops below altitude 10° 11:55:02 10° 19° (NNE) 2,004 5.6 -8.7°
Sets 11:57:22 0° 27° (NNE) 2,892 6.5 -8.3°
